Weather History for Ogden Hill AFB, UT

Change the Weather History Date:

Saturday, January 25, 2014

  Actual Average Record
Temperature  
Mean Temperature 26 °F -  
Max Temperature 34 °F 34 °F 44 °F (1998)
Min Temperature 18 °F 22 °F 16 °F (2008)
Degree Days  
Heating Degree Days 39    
Moisture  
Dew Point 12 °F    
Average Humidity 57    
Maximum Humidity 65    
Minimum Humidity 45    
Precipitation  
Precipitation 0.00 in - - ()
Sea Level Pressure  
Sea Level Pressure 30.45 in    
Wind  
Wind Speed 10 mph (East)    
Max Wind Speed 18 mph    
Max Gust Speed -    
Visibility 10 miles    
Events      
Averages and records for this station are not official NWS values.
T = Trace of Precipitation, MM = Missing Value Source: NWS Daily Summary

Daily Weather History Graph

Daily Weather History Graph

Search for Another Location

Airport:

Trip Planner

Search our weather history database for the weather conditions in past years. The results will help you decide how hot, cold, wet, or windy it might be!

Date:

Astronomy

Jan. 25, 2014 Rise Set
Actual Time 7:44 AM MST 5:36 PM MST
Civil Twilight 7:15 AM MST 6:05 PM MST
Nautical Twilight 6:41 AM MST 6:39 PM MST
Astronomical Twilight 6:09 AM MST 7:11 PM MST
Moon 2:20 AM MST (1/25) 12:39 PM MST (1/25)
Length of Visible Light 10h 50m
Length of Day
9h 51m
Waning Crescent, 33% of the Moon is Illuminated
Jan 25
Waning Crescent
Jan 30
New
Feb 6
First Quarter
Feb 14
Full
Feb 22
Last Quarter

Hourly Weather History & Observations

Time (MST) Temp. Windchill Dew Point Humidity Pressure Visibility Wind Dir Wind Speed Gust Speed Precip Events Conditions
12:58 AM 22.5 °F 11.7 °F 10.2 °F 59% 30.54 in 10.0 mi ESE 10.4 mph - N/A   Clear
1:58 AM 22.3 °F 10.2 °F 9.0 °F 57% 30.52 in 10.0 mi ESE 12.7 mph - N/A   Clear
2:58 AM 21.0 °F 9.3 °F 8.4 °F 58% 30.52 in 10.0 mi ESE 11.5 mph - N/A   Clear
3:58 AM 19.9 °F 6.2 °F 8.2 °F 61% 30.51 in 10.0 mi ESE 15.0 mph - N/A   Clear
4:58 AM 20.5 °F 6.4 °F 8.1 °F 59% 30.51 in 10.0 mi ESE 16.1 mph - N/A   Clear
5:58 AM 19.9 °F 7.3 °F 7.7 °F 59% 30.53 in 10.0 mi East 12.7 mph - N/A   Clear
6:58 AM 18.3 °F 2.6 °F 7.2 °F 62% 30.53 in 10.0 mi East 18.4 mph - N/A   Clear
7:58 AM 18.7 °F 4.0 °F 7.0 °F 60% 30.53 in 10.0 mi ESE 16.1 mph - N/A   Clear
8:58 AM 19.9 °F 6.2 °F 7.5 °F 59% 30.53 in 10.0 mi ESE 15.0 mph - N/A   Clear
9:58 AM 22.5 °F 9.9 °F 8.6 °F 55% 30.51 in 10.0 mi East 13.8 mph - N/A   Clear
10:58 AM 26.8 °F 19.3 °F 10.6 °F 51% 30.51 in 10.0 mi East 6.9 mph - N/A   Clear
11:58 AM 31.3 °F - 13.3 °F 47% 30.47 in 10.0 mi Calm Calm - N/A   Clear
12:58 PM 32.5 °F 29.3 °F 14.5 °F 48% 30.44 in 10.0 mi West 3.5 mph - N/A   Clear
1:58 PM 33.8 °F 29.6 °F 17.2 °F 51% 30.41 in 10.0 mi WNW 4.6 mph - N/A   Clear
2:58 PM 34.7 °F 30.6 °F 15.1 °F 45% 30.40 in 10.0 mi NW 4.6 mph - N/A   Clear
3:58 PM 33.6 °F 30.6 °F 16.5 °F 50% 30.40 in 10.0 mi NW 3.5 mph - N/A   Clear
4:58 PM 33.1 °F 30.0 °F 15.6 °F 49% 30.38 in 10.0 mi NW 3.5 mph - N/A   Clear
5:58 PM 30.0 °F 24.1 °F 15.8 °F 56% 30.38 in 10.0 mi NW 5.8 mph - N/A   Clear
6:58 PM 28.2 °F 23.1 °F 15.3 °F 58% 30.40 in 10.0 mi NNW 4.6 mph - N/A   Clear
7:58 PM 26.2 °F - 14.9 °F 62% 30.39 in 10.0 mi Calm Calm - N/A   Clear
8:58 PM 26.4 °F - 15.3 °F 63% 30.39 in 10.0 mi Calm Calm - N/A   Clear
9:58 PM 25.2 °F - 14.9 °F 65% 30.37 in 10.0 mi East 2.3 mph - N/A   Clear
10:58 PM 24.3 °F 17.3 °F 13.1 °F 63% 30.34 in 10.0 mi ESE 5.8 mph - N/A   Clear
11:58 PM 23.7 °F 14.7 °F 12.0 °F 61% 30.32 in 10.0 mi East 8.1 mph - N/A   Clear